WXM80 ListenWXM80 Stop

You find our weather info also at:

UK Metoffice

WeatherCloud

Weather Underground

Northeastern Weather Network

AWEKAS

Citizen Weather Observer Program (CWOP)

HAMweather, WeatherForYou, PWS Weather


Weather Underground History page Text

Daily Summary for January 4, 2017 Units:  English    Metric   Both
« Previous Day
Next Day »
Daily Weekly Monthly Yearly Custom
  High: Low: Average:
Temperature: 50.2 °F 35.5 °F 43.7 °F
Dew Point: 45.2 °F 17.3 °F 36.4 °F
Humidity: 98 % 42 % 78 %
Wind Speed: 15.0 mph 0.0 mph 5 mph
Wind Gust: 29.0 mph - -
Wind:- - WSW
Pressure: 29.68 in 29.40 in -
Precipitation: 0.01 in    
Historical Graphs
 
 
Tabular Data for January 4, 2017
Time Temperature Dew Point Pressure Wind Wind Speed Wind Gust Humidity Rainfall Rate (Hourly)
00:03 42.0 °F 41.5 °F 29.43 in WNW 3.6 mph 29.0 mph 98 % 0.01 in
00:08 42.0 °F 41.5 °F 29.42 in WNW 3.1 mph 29.0 mph 98 % 0.01 in
00:13 41.9 °F 41.4 °F 29.43 in WNW 2.5 mph 29.0 mph 98 % 0.01 in
00:18 41.9 °F 41.4 °F 29.43 in WSW 0.8 mph 29.0 mph 98 % 0.01 in
00:24 41.9 °F 41.4 °F 29.42 in WNW 1.6 mph 29.0 mph 98 % 0.01 in
00:29 41.9 °F 41.4 °F 29.42 in WNW 2.9 mph 29.0 mph 98 % 0.01 in
00:34 41.8 °F 41.3 °F 29.43 in West 1.3 mph 29.0 mph 98 % 0.01 in
00:39 41.9 °F 41.4 °F 29.42 in WNW 1.2 mph 29.0 mph 98 % 0.01 in
00:44 41.8 °F 41.3 °F 29.42 in West 4.0 mph 29.0 mph 98 % 0.01 in
00:49 41.8 °F 41.3 °F 29.42 in West 1.0 mph 29.0 mph 98 % 0.01 in
00:54 41.8 °F 41.3 °F 29.41 in Calm   5.0 mph 98 % 0.00 in
00:59 41.8 °F 41.3 °F 29.41 in WNW 2.2 mph 29.0 mph 98 % 0.01 in
01:04 41.7 °F 41.2 °F 29.41 in WNW 1.0 mph 3.0 mph 98 % 0.00 in
01:09 41.7 °F 41.2 °F 29.41 in WNW 2.2 mph 29.0 mph 98 % 0.00 in
01:14 41.7 °F 41.2 °F 29.41 in Calm   3.0 mph 98 % 0.00 in
01:19 41.7 °F 41.2 °F 29.42 in WNW 1.0 mph 2.0 mph 98 % 0.00 in
01:24 41.7 °F 41.2 °F 29.41 in WNW 1.0 mph 3.0 mph 98 % 0.00 in
01:29 41.7 °F 41.1 °F 29.42 in WSW 7.0 mph 12.0 mph 98 % 0.00 in
01:34 41.5 °F 41.0 °F 29.42 in WSW 3.0 mph 12.0 mph 98 % 0.00 in
01:39 41.4 °F 40.9 °F 29.42 in WSW 3.0 mph 8.0 mph 98 % 0.00 in
01:44 41.3 °F 40.8 °F 29.42 in WSW 5.0 mph 7.0 mph 98 % 0.00 in
01:49 41.3 °F 40.8 °F 29.42 in West 1.0 mph 8.0 mph 98 % 0.00 in
01:54 41.2 °F 40.7 °F 29.42 in WSW 3.8 mph 29.0 mph 98 % 0.00 in
01:59 41.2 °F 40.7 °F 29.42 in WSW 2.7 mph 29.0 mph 98 % 0.00 in
02:04 41.1 °F 40.6 °F 29.42 in West 1.2 mph 29.0 mph 98 % 0.00 in
02:09 41.1 °F 40.6 °F 29.42 in West 4.1 mph 29.0 mph 98 % 0.00 in
02:14 41.1 °F 40.6 °F 29.42 in WSW 3.2 mph 29.0 mph 98 % 0.00 in
02:19 41.0 °F 40.5 °F 29.42 in WNW 2.2 mph 29.0 mph 98 % 0.00 in
02:24 41.0 °F 40.5 °F 29.42 in West 2.8 mph 29.0 mph 98 % 0.00 in
02:30 40.9 °F 40.4 °F 29.43 in SW 3.9 mph 29.0 mph 98 % 0.00 in
02:35 40.9 °F 40.4 °F 29.42 in SW 1.1 mph 29.0 mph 98 % 0.00 in
02:40 40.9 °F 40.4 °F 29.42 in SW 1.3 mph 29.0 mph 98 % 0.00 in
02:45 40.8 °F 40.3 °F 29.42 in WNW 0.6 mph 29.0 mph 98 % 0.00 in
02:50 40.8 °F 40.3 °F 29.42 in WNW 2.8 mph 29.0 mph 98 % 0.00 in
02:55 40.8 °F 40.3 °F 29.41 in West 1.3 mph 29.0 mph 98 % 0.00 in
03:00 40.7 °F 40.2 °F 29.40 in Calm   29.0 mph 98 % 0.00 in
03:05 40.7 °F 40.2 °F 29.41 in WSW 3.1 mph 29.0 mph 98 % 0.00 in
03:10 40.7 °F 40.2 °F 29.42 in WSW 2.7 mph 29.0 mph 98 % 0.00 in
03:15 40.7 °F 40.2 °F 29.42 in SW 2.7 mph 29.0 mph 98 % 0.00 in
03:20 40.7 °F 40.2 °F 29.42 in SW 2.3 mph 29.0 mph 98 % 0.00 in
03:25 40.7 °F 40.2 °F 29.41 in Calm   29.0 mph 98 % 0.00 in
03:30 40.6 °F 40.1 °F 29.42 in SW 0.6 mph 29.0 mph 98 % 0.00 in
03:35 40.7 °F 40.2 °F 29.41 in SW 3.6 mph 29.0 mph 98 % 0.00 in
03:40 40.7 °F 40.2 °F 29.41 in SW 0.5 mph 29.0 mph 98 % 0.00 in
03:45 40.6 °F 40.1 °F 29.41 in SW 2.2 mph 29.0 mph 98 % 0.00 in
03:50 40.6 °F 40.1 °F 29.41 in SW 0.4 mph 29.0 mph 98 % 0.00 in
03:56 40.6 °F 40.1 °F 29.41 in SW 0.6 mph 29.0 mph 98 % 0.00 in
04:01 40.6 °F 40.1 °F 29.41 in SW 1.3 mph 29.0 mph 98 % 0.00 in
04:06 40.7 °F 40.2 °F 29.41 in SW 1.7 mph 29.0 mph 98 % 0.00 in
04:11 40.7 °F 40.2 °F 29.42 in SW 1.2 mph 29.0 mph 98 % 0.00 in
04:16 40.7 °F 40.2 °F 29.41 in SW 1.7 mph 29.0 mph 98 % 0.00 in
04:21 40.7 °F 40.2 °F 29.42 in SW 1.1 mph 29.0 mph 98 % 0.00 in
04:26 40.7 °F 40.2 °F 29.41 in SW 1.6 mph 29.0 mph 98 % 0.00 in
04:31 40.8 °F 40.3 °F 29.42 in SW 1.3 mph 29.0 mph 98 % 0.00 in
04:36 40.8 °F 40.3 °F 29.43 in SW 1.7 mph 29.0 mph 98 % 0.00 in
04:41 40.9 °F 40.4 °F 29.42 in Calm   29.0 mph 98 % 0.00 in
04:46 40.9 °F 40.4 °F 29.42 in WSW 1.8 mph 29.0 mph 98 % 0.00 in
04:51 40.9 °F 40.4 °F 29.41 in Calm   29.0 mph 98 % 0.00 in
04:56 41.0 °F 40.5 °F 29.41 in WSW 0.9 mph 29.0 mph 98 % 0.00 in
05:02 41.0 °F 40.5 °F 29.41 in WSW 1.3 mph 29.0 mph 98 % 0.00 in
05:07 41.0 °F 40.5 °F 29.41 in SSW 1.3 mph 29.0 mph 98 % 0.00 in
05:12 41.1 °F 40.6 °F 29.41 in SSW 2.6 mph 29.0 mph 98 % 0.00 in
05:17 41.1 °F 40.6 °F 29.41 in SSW 0.2 mph 29.0 mph 98 % 0.00 in
05:27 41.2 °F 40.7 °F 29.41 in SW 3.0 mph 29.0 mph 98 % 0.00 in
05:32 41.2 °F 40.7 °F 29.42 in SW 2.4 mph 29.0 mph 98 % 0.00 in
05:37 41.3 °F 40.8 °F 29.42 in SW 1.9 mph 29.0 mph 98 % 0.00 in
05:42 41.3 °F 40.8 °F 29.42 in SW 1.0 mph 29.0 mph 98 % 0.00 in
05:47 41.4 °F 40.9 °F 29.42 in WSW 3.4 mph 29.0 mph 98 % 0.00 in
05:52 41.4 °F 40.9 °F 29.43 in WSW 3.6 mph 29.0 mph 98 % 0.00 in
05:57 41.5 °F 41.0 °F 29.43 in WSW 0.7 mph 29.0 mph 98 % 0.00 in
06:02 41.5 °F 41.0 °F 29.43 in SW 2.2 mph 29.0 mph 98 % 0.00 in
06:07 41.5 °F 41.0 °F 29.42 in SW 3.0 mph 29.0 mph 98 % 0.00 in
06:12 41.5 °F 41.0 °F 29.42 in WSW 2.9 mph 29.0 mph 98 % 0.00 in
06:18 41.5 °F 41.0 °F 29.42 in WSW 1.4 mph 29.0 mph 98 % 0.00 in
06:28 41.6 °F 41.1 °F 29.43 in WSW 0.8 mph 29.0 mph 98 % 0.00 in
06:33 41.6 °F 41.1 °F 29.42 in WSW 0.3 mph 29.0 mph 98 % 0.00 in
06:38 41.6 °F 41.1 °F 29.42 in West 0.5 mph 29.0 mph 98 % 0.00 in
06:43 41.6 °F 41.1 °F 29.43 in West 0.1 mph 29.0 mph 98 % 0.00 in
06:48 41.6 °F 41.1 °F 29.43 in West 0.2 mph 29.0 mph 98 % 0.00 in
06:53 41.6 °F 41.1 °F 29.43 in SW 1.4 mph 29.0 mph 98 % 0.00 in
06:58 41.6 °F 41.1 °F 29.43 in West 1.8 mph 29.0 mph 98 % 0.00 in
07:03 41.6 °F 41.1 °F 29.43 in Calm   29.0 mph 98 % 0.00 in
07:08 41.6 °F 41.1 °F 29.43 in SW 0.6 mph 29.0 mph 98 % 0.00 in
07:13 41.6 °F 41.1 °F 29.43 in SW 2.9 mph 29.0 mph 98 % 0.00 in
07:19 41.7 °F 41.2 °F 29.43 in SW 1.1 mph 29.0 mph 98 % 0.00 in
07:24 41.7 °F 41.2 °F 29.43 in Calm   29.0 mph 98 % 0.00 in
07:29 41.8 °F 41.3 °F 29.44 in SW 2.1 mph 29.0 mph 98 % 0.00 in
07:34 41.9 °F 41.4 °F 29.44 in SW 1.5 mph 29.0 mph 98 % 0.00 in
07:39 41.9 °F 41.4 °F 29.45 in WSW 4.2 mph 29.0 mph 98 % 0.00 in
07:44 42.0 °F 41.5 °F 29.45 in SSW 1.8 mph 29.0 mph 98 % 0.00 in
07:49 42.1 °F 41.6 °F 29.44 in WSW 3.0 mph 29.0 mph 98 % 0.00 in
07:54 42.1 °F 41.6 °F 29.44 in SW 3.3 mph 29.0 mph 98 % 0.00 in
07:59 42.2 °F 41.7 °F 29.43 in WSW 2.5 mph 29.0 mph 98 % 0.00 in
08:09 42.4 °F 41.9 °F 29.44 in SW 0.3 mph 29.0 mph 98 % 0.00 in
08:14 42.5 °F 42.0 °F 29.44 in WSW 3.7 mph 29.0 mph 98 % 0.00 in
08:19 42.6 °F 42.1 °F 29.45 in SSW 3.2 mph 29.0 mph 98 % 0.00 in
08:24 42.7 °F 42.2 °F 29.45 in SSW 3.9 mph 29.0 mph 98 % 0.00 in
08:30 42.8 °F 42.3 °F 29.45 in SW 4.2 mph 29.0 mph 98 % 0.00 in
08:35 42.9 °F 42.4 °F 29.45 in SSW 3.8 mph 29.0 mph 98 % 0.00 in
08:40 43.0 °F 42.5 °F 29.44 in WSW 2.4 mph 29.0 mph 98 % 0.00 in
08:45 43.1 °F 42.6 °F 29.44 in WSW 4.5 mph 29.0 mph 98 % 0.00 in
08:50 43.2 °F 42.7 °F 29.45 in West 4.0 mph 29.0 mph 98 % 0.00 in
09:00 43.4 °F 42.9 °F 29.45 in SW 4.8 mph 29.0 mph 98 % 0.00 in
09:05 43.5 °F 43.0 °F 29.45 in WSW 6.8 mph 29.0 mph 98 % 0.00 in
09:10 43.7 °F 43.2 °F 29.45 in WSW 1.0 mph 29.0 mph 98 % 0.00 in
09:15 43.8 °F 43.3 °F 29.45 in SSW 2.1 mph 29.0 mph 98 % 0.00 in
09:20 44.0 °F 43.5 °F 29.45 in WSW 4.6 mph 29.0 mph 98 % 0.00 in
09:25 44.2 °F 43.7 °F 29.45 in SW 3.5 mph 29.0 mph 98 % 0.00 in
09:31 44.4 °F 43.9 °F 29.45 in SW 4.6 mph 29.0 mph 98 % 0.00 in
09:36 44.7 °F 44.2 °F 29.45 in WSW 3.3 mph 29.0 mph 98 % 0.00 in
09:41 45.0 °F 44.5 °F 29.46 in SSW 7.2 mph 29.0 mph 98 % 0.00 in
09:46 45.1 °F 44.6 °F 29.46 in SW 4.4 mph 29.0 mph 98 % 0.00 in
09:51 45.2 °F 44.7 °F 29.46 in South 3.3 mph 29.0 mph 98 % 0.00 in
09:56 45.3 °F 44.5 °F 29.46 in WSW 5.0 mph 29.0 mph 97 % 0.00 in
10:01 45.5 °F 44.7 °F 29.47 in West 6.7 mph 29.0 mph 97 % 0.00 in
10:06 45.8 °F 44.7 °F 29.47 in SW 9.6 mph 29.0 mph 96 % 0.00 in
10:11 46.0 °F 44.6 °F 29.46 in SW 4.8 mph 29.0 mph 95 % 0.00 in
10:16 46.3 °F 44.7 °F 29.46 in SW 3.3 mph 29.0 mph 94 % 0.00 in
10:21 46.4 °F 44.8 °F 29.46 in WSW 5.0 mph 29.0 mph 94 % 0.00 in
10:26 46.5 °F 44.9 °F 29.46 in SW 3.9 mph 29.0 mph 94 % 0.00 in
10:31 46.5 °F 44.3 °F 29.46 in West 7.8 mph 29.0 mph 92 % 0.00 in
10:36 46.5 °F 44.3 °F 29.46 in SW 4.1 mph 29.0 mph 92 % 0.00 in
10:42 46.6 °F 44.1 °F 29.46 in WSW 3.4 mph 29.0 mph 91 % 0.00 in
10:47 46.8 °F 44.3 °F 29.45 in SW 4.1 mph 29.0 mph 91 % 0.00 in
10:52 46.9 °F 44.4 °F 29.45 in West 4.6 mph 29.0 mph 91 % 0.00 in
10:57 47.0 °F 44.5 °F 29.46 in West 4.8 mph 29.0 mph 91 % 0.00 in
11:02 47.3 °F 44.8 °F 29.45 in SW 4.3 mph 29.0 mph 91 % 0.00 in
11:07 47.6 °F 44.8 °F 29.45 in WSW 4.5 mph 29.0 mph 90 % 0.00 in
11:12 47.8 °F 44.7 °F 29.45 in WNW 4.7 mph 29.0 mph 89 % 0.00 in
11:17 48.0 °F 44.6 °F 29.45 in SW 5.0 mph 29.0 mph 88 % 0.00 in
11:22 48.3 °F 45.2 °F 29.46 in SW 7.9 mph 29.0 mph 89 % 0.00 in
11:27 48.5 °F 44.8 °F 29.46 in WSW 5.2 mph 29.0 mph 87 % 0.00 in
11:37 48.6 °F 44.6 °F 29.46 in SW 6.4 mph 29.0 mph 86 % 0.00 in
11:42 48.7 °F 44.7 °F 29.46 in SW 4.9 mph 29.0 mph 86 % 0.00 in
11:47 48.8 °F 44.8 °F 29.45 in SW 8.0 mph 29.0 mph 86 % 0.00 in
11:53 48.8 °F 44.5 °F 29.45 in West 6.5 mph 29.0 mph 85 % 0.00 in
11:58 48.8 °F 44.5 °F 29.46 in West 7.5 mph 29.0 mph 85 % 0.00 in
12:03 48.9 °F 44.6 °F 29.46 in West 4.6 mph 29.0 mph 85 % 0.00 in
12:08 49.0 °F 44.4 °F 29.46 in WSW 8.1 mph 29.0 mph 84 % 0.00 in
12:13 49.0 °F 44.4 °F 29.45 in West 8.1 mph 29.0 mph 84 % 0.00 in
12:18 49.1 °F 44.5 °F 29.45 in WSW 6.2 mph 29.0 mph 84 % 0.00 in
12:23 49.2 °F 44.3 °F 29.45 in WSW 3.1 mph 29.0 mph 83 % 0.00 in
12:28 49.3 °F 44.7 °F 29.45 in WSW 6.9 mph 29.0 mph 84 % 0.00 in
12:33 49.4 °F 44.5 °F 29.45 in WSW 7.2 mph 29.0 mph 83 % 0.00 in
12:38 49.4 °F 44.1 °F 29.45 in WSW 7.2 mph 29.0 mph 82 % 0.00 in
12:43 49.3 °F 44.0 °F 29.45 in SW 5.9 mph 29.0 mph 82 % 0.00 in
12:48 49.2 °F 43.9 °F 29.45 in SW 6.2 mph 29.0 mph 82 % 0.00 in
12:50 49.2 °F 43.9 °F 29.45 in West 3.5 mph 29.0 mph 82 % 0.00 in
12:55 49.1 °F 43.8 °F 29.45 in West 8.7 mph 29.0 mph 82 % 0.00 in
13:00 49.1 °F 44.2 °F 29.44 in SW 7.5 mph 29.0 mph 83 % 0.00 in
13:05 49.0 °F 44.1 °F 29.44 in SSW 4.3 mph 29.0 mph 83 % 0.00 in
13:10 49.0 °F 44.1 °F 29.44 in SW 3.0 mph 29.0 mph 83 % 0.00 in
13:15 48.9 °F 44.0 °F 29.44 in SW 8.6 mph 29.0 mph 83 % 0.00 in
13:20 48.8 °F 43.9 °F 29.44 in WSW 7.4 mph 29.0 mph 83 % 0.00 in
13:30 48.8 °F 43.9 °F 29.43 in West 0.7 mph 29.0 mph 83 % 0.00 in
13:35 49.0 °F 44.4 °F 29.43 in West 5.9 mph 29.0 mph 84 % 0.00 in
13:41 49.2 °F 44.6 °F 29.44 in West 5.1 mph 29.0 mph 84 % 0.00 in
13:46 49.4 °F 44.8 °F 29.44 in WSW 6.5 mph 29.0 mph 84 % 0.00 in
13:51 49.5 °F 44.6 °F 29.44 in WNW 3.8 mph 29.0 mph 83 % 0.00 in
13:56 49.6 °F 44.3 °F 29.44 in WSW 7.0 mph 29.0 mph 82 % 0.00 in
14:01 49.6 °F 44.3 °F 29.45 in West 7.4 mph 29.0 mph 82 % 0.00 in
14:06 49.7 °F 44.1 °F 29.44 in WSW 5.5 mph 29.0 mph 81 % 0.00 in
14:11 49.8 °F 44.2 °F 29.44 in West 3.9 mph 29.0 mph 81 % 0.00 in
14:16 49.9 °F 44.3 °F 29.44 in West 7.6 mph 29.0 mph 81 % 0.00 in
14:21 49.9 °F 44.3 °F 29.45 in SW 3.9 mph 29.0 mph 81 % 0.00 in
14:26 49.8 °F 43.9 °F 29.44 in WSW 6.4 mph 29.0 mph 80 % 0.00 in
14:31 49.7 °F 43.8 °F 29.44 in SW 4.3 mph 29.0 mph 80 % 0.00 in
14:36 49.8 °F 43.9 °F 29.44 in SW 4.8 mph 29.0 mph 80 % 0.00 in
14:41 49.7 °F 43.5 °F 29.45 in West 4.8 mph 29.0 mph 79 % 0.00 in
14:46 49.8 °F 43.5 °F 29.44 in West 7.5 mph 29.0 mph 79 % 0.00 in
14:51 49.8 °F 43.2 °F 29.45 in NW 6.9 mph 29.0 mph 78 % 0.00 in
14:57 49.9 °F 43.0 °F 29.45 in WSW 5.1 mph 29.0 mph 77 % 0.00 in
15:02 49.8 °F 42.2 °F 29.44 in West 3.2 mph 29.0 mph 75 % 0.00 in
15:07 49.9 °F 42.3 °F 29.44 in WSW 4.3 mph 29.0 mph 75 % 0.00 in
15:12 50.0 °F 42.4 °F 29.44 in WSW 5.1 mph 29.0 mph 75 % 0.00 in
15:17 50.0 °F 42.0 °F 29.44 in WSW 6.0 mph 29.0 mph 74 % 0.00 in
15:22 50.0 °F 42.0 °F 29.44 in SW 6.0 mph 29.0 mph 74 % 0.00 in
15:27 49.9 °F 41.6 °F 29.45 in WSW 6.9 mph 29.0 mph 73 % 0.00 in
15:32 49.9 °F 41.6 °F 29.45 in WSW 7.6 mph 29.0 mph 73 % 0.00 in
15:37 50.0 °F 41.7 °F 29.45 in WNW 6.4 mph 29.0 mph 73 % 0.00 in
15:42 50.0 °F 41.3 °F 29.46 in WSW 2.7 mph 29.0 mph 72 % 0.00 in
15:47 50.1 °F 41.4 °F 29.46 in WNW 4.2 mph 29.0 mph 72 % 0.00 in
15:52 50.2 °F 40.4 °F 29.46 in NNE 8.5 mph 29.0 mph 69 % 0.00 in
15:57 50.1 °F 39.9 °F 29.46 in WNW 3.5 mph 29.0 mph 68 % 0.00 in
16:03 50.1 °F 39.9 °F 29.46 in West 4.1 mph 29.0 mph 68 % 0.00 in
16:08 49.9 °F 39.4 °F 29.47 in West 7.2 mph 29.0 mph 67 % 0.00 in
16:13 49.5 °F 36.6 °F 29.47 in WSW 4.3 mph 29.0 mph 61 % 0.00 in
16:18 49.1 °F 34.1 °F 29.47 in West 7.4 mph 29.0 mph 56 % 0.00 in
16:23 48.8 °F 33.3 °F 29.47 in West 7.4 mph 29.0 mph 55 % 0.00 in
16:28 48.5 °F 33.1 °F 29.48 in West 8.4 mph 29.0 mph 55 % 0.00 in
16:33 48.1 °F 32.2 °F 29.47 in WSW 7.5 mph 29.0 mph 54 % 0.00 in
16:38 47.9 °F 32.0 °F 29.47 in WNW 8.9 mph 29.0 mph 54 % 0.00 in
16:43 47.7 °F 32.3 °F 29.48 in SW 5.6 mph 29.0 mph 55 % 0.00 in
16:48 47.5 °F 32.1 °F 29.48 in SW 8.0 mph 29.0 mph 55 % 0.00 in
16:58 47.1 °F 32.2 °F 29.48 in West 5.0 mph 29.0 mph 56 % 0.00 in
17:04 46.9 °F 31.6 °F 29.48 in WSW 7.4 mph 29.0 mph 55 % 0.00 in
17:09 46.9 °F 32.0 °F 29.48 in WNW 4.7 mph 29.0 mph 56 % 0.00 in
17:14 46.7 °F 31.8 °F 29.48 in WSW 7.8 mph 29.0 mph 56 % 0.00 in
17:19 46.6 °F 31.7 °F 29.49 in WSW 6.8 mph 29.0 mph 56 % 0.00 in
17:24 46.5 °F 32.1 °F 29.49 in WSW 5.4 mph 29.0 mph 57 % 0.00 in
17:29 46.4 °F 32.0 °F 29.49 in WSW 3.0 mph 29.0 mph 57 % 0.00 in
17:34 46.2 °F 31.4 °F 29.49 in WSW 4.7 mph 29.0 mph 56 % 0.00 in
17:39 46.1 °F 30.8 °F 29.50 in WSW 7.3 mph 29.0 mph 55 % 0.00 in
17:47 46.0 °F 30.3 °F 29.50 in WSW 9.0 mph 29.0 mph 54 % 0.00 in
17:54 45.9 °F 30.6 °F 29.51 in SSW 4.9 mph 29.0 mph 55 % 0.00 in
17:59 45.7 °F 30.9 °F 29.51 in West 4.6 mph 29.0 mph 56 % 0.00 in
18:04 45.5 °F 31.1 °F 29.52 in WSW 3.8 mph 29.0 mph 57 % 0.00 in
18:09 45.2 °F 30.9 °F 29.52 in WSW 4.3 mph 29.0 mph 57 % 0.00 in
18:14 45.0 °F 30.7 °F 29.52 in WSW 6.0 mph 10.0 mph 57 % 0.00 in
18:19 44.9 °F 31.0 °F 29.52 in WSW 3.0 mph 14.0 mph 58 % 0.00 in
18:24 44.7 °F 30.8 °F 29.52 in WNW 5.2 mph 29.0 mph 58 % 0.00 in
18:29 44.6 °F 30.7 °F 29.52 in WSW 6.0 mph 15.0 mph 58 % 0.00 in
18:34 44.5 °F 29.8 °F 29.52 in NW 4.5 mph 29.0 mph 56 % 0.00 in
18:39 44.4 °F 28.8 °F 29.52 in West 7.0 mph 14.0 mph 54 % 0.00 in
18:44 44.4 °F 26.9 °F 29.53 in WSW 15.0 mph 24.0 mph 50 % 0.00 in
18:49 44.6 °F 27.1 °F 29.53 in West 10.0 mph 20.0 mph 50 % 0.00 in
18:54 44.5 °F 27.0 °F 29.53 in West 5.0 mph 22.0 mph 50 % 0.00 in
18:59 44.4 °F 26.9 °F 29.53 in WNW 7.6 mph 29.0 mph 50 % 0.00 in
19:04 44.3 °F 26.3 °F 29.54 in West 7.0 mph 16.0 mph 49 % 0.00 in
19:09 44.2 °F 26.2 °F 29.54 in WSW 8.0 mph 15.0 mph 49 % 0.00 in
19:14 44.1 °F 26.1 °F 29.54 in SW 6.0 mph 26.0 mph 49 % 0.00 in
19:19 44.0 °F 25.5 °F 29.55 in WSW 6.0 mph 14.0 mph 48 % 0.00 in
19:24 43.8 °F 25.9 °F 29.55 in West 6.0 mph 15.0 mph 49 % 0.00 in
19:29 43.7 °F 25.3 °F 29.55 in West 7.0 mph 12.0 mph 48 % 0.00 in
19:34 43.6 °F 25.7 °F 29.55 in West 6.3 mph 29.0 mph 49 % 0.00 in
19:39 43.4 °F 26.0 °F 29.55 in WNW 6.0 mph 12.0 mph 50 % 0.00 in
19:44 43.3 °F 25.9 °F 29.55 in West 8.0 mph 16.0 mph 50 % 0.00 in
19:49 43.1 °F 23.2 °F 29.56 in WSW 9.2 mph 29.0 mph 45 % 0.00 in
19:54 42.9 °F 21.9 °F 29.56 in WSW 10.0 mph 20.0 mph 43 % 0.00 in
19:59 42.7 °F 21.7 °F 29.56 in West 6.9 mph 29.0 mph 43 % 0.00 in
20:04 42.6 °F 22.2 °F 29.57 in WSW 5.9 mph 29.0 mph 44 % 0.00 in
20:09 42.4 °F 21.5 °F 29.57 in WNW 5.3 mph 29.0 mph 43 % 0.00 in
20:14 42.2 °F 21.8 °F 29.57 in SW 7.9 mph 29.0 mph 44 % 0.00 in
20:19 42.0 °F 21.1 °F 29.57 in West 12.4 mph 29.0 mph 43 % 0.00 in
20:25 41.8 °F 20.4 °F 29.57 in SW 13.1 mph 29.0 mph 42 % 0.00 in
20:30 41.6 °F 20.2 °F 29.57 in WSW 12.3 mph 29.0 mph 42 % 0.00 in
20:35 41.5 °F 20.6 °F 29.58 in WSW 7.5 mph 29.0 mph 43 % 0.00 in
20:40 41.3 °F 21.0 °F 29.58 in WSW 7.8 mph 29.0 mph 44 % 0.00 in
20:45 41.1 °F 21.3 °F 29.58 in SW 6.3 mph 29.0 mph 45 % 0.00 in
20:50 40.9 °F 20.1 °F 29.58 in NW 8.6 mph 29.0 mph 43 % 0.00 in
20:55 40.8 °F 19.5 °F 29.59 in WNW 13.1 mph 29.0 mph 42 % 0.00 in
21:00 40.6 °F 19.3 °F 29.59 in WNW 11.0 mph 29.0 mph 42 % 0.00 in
21:05 40.4 °F 19.6 °F 29.59 in SW 7.7 mph 29.0 mph 43 % 0.00 in
21:10 40.2 °F 20.0 °F 29.60 in SW 11.5 mph 29.0 mph 44 % 0.00 in
21:15 40.0 °F 20.3 °F 29.60 in SW 9.3 mph 29.0 mph 45 % 0.00 in
21:20 39.7 °F 20.6 °F 29.60 in WSW 11.0 mph 29.0 mph 46 % 0.00 in
21:25 39.5 °F 20.9 °F 29.60 in SW 7.4 mph 29.0 mph 47 % 0.00 in
21:31 39.3 °F 19.7 °F 29.60 in WSW 12.1 mph 29.0 mph 45 % 0.00 in
21:36 39.2 °F 19.1 °F 29.61 in WSW 8.8 mph 29.0 mph 44 % 0.00 in
21:41 39.0 °F 19.9 °F 29.62 in SSW 10.4 mph 29.0 mph 46 % 0.00 in
21:46 38.8 °F 18.7 °F 29.62 in WSW 9.3 mph 29.0 mph 44 % 0.00 in
21:51 38.5 °F 19.5 °F 29.62 in SW 14.1 mph 29.0 mph 46 % 0.00 in
21:56 38.3 °F 19.3 °F 29.63 in WSW 12.2 mph 29.0 mph 46 % 0.00 in
22:01 38.2 °F 19.7 °F 29.63 in WSW 12.8 mph 29.0 mph 47 % 0.00 in
22:06 38.0 °F 19.5 °F 29.63 in WSW 5.7 mph 29.0 mph 47 % 0.00 in
22:11 37.8 °F 19.3 °F 29.63 in WSW 9.4 mph 29.0 mph 47 % 0.00 in
22:16 37.7 °F 19.3 °F 29.64 in WSW 8.8 mph 29.0 mph 47 % 0.00 in
22:21 37.5 °F 18.6 °F 29.64 in West 9.1 mph 29.0 mph 46 % 0.00 in
22:26 37.4 °F 18.5 °F 29.65 in WNW 7.7 mph 29.0 mph 46 % 0.00 in
22:31 37.2 °F 18.3 °F 29.65 in West 7.9 mph 29.0 mph 46 % 0.00 in
22:36 37.1 °F 18.2 °F 29.65 in West 5.8 mph 29.0 mph 46 % 0.00 in
22:41 37.0 °F 18.1 °F 29.66 in NW 10.4 mph 29.0 mph 46 % 0.00 in
22:46 36.9 °F 17.5 °F 29.66 in NW 12.1 mph 29.0 mph 45 % 0.00 in
22:51 36.8 °F 17.4 °F 29.66 in WSW 12.3 mph 29.0 mph 45 % 0.00 in
22:57 36.7 °F 17.3 °F 29.66 in SW 7.8 mph 29.0 mph 45 % 0.00 in
23:02 36.6 °F 17.7 °F 29.66 in WSW 7.9 mph 29.0 mph 46 % 0.00 in
23:06 36.5 °F 17.7 °F 29.66 in West 9.5 mph 29.0 mph 46 % 0.00 in
23:12 36.4 °F 18.1 °F 29.67 in WNW 8.5 mph 29.0 mph 47 % 0.00 in
23:17 36.2 °F 18.4 °F 29.67 in West 6.6 mph 29.0 mph 48 % 0.00 in
23:22 36.1 °F 18.3 °F 29.67 in WSW 7.2 mph 29.0 mph 48 % 0.00 in
23:27 36.1 °F 18.8 °F 29.67 in WSW 7.1 mph 29.0 mph 49 % 0.00 in
23:32 36.0 °F 18.2 °F 29.68 in WNW 7.6 mph 29.0 mph 48 % 0.00 in
23:37 35.9 °F 18.1 °F 29.67 in West 13.2 mph 29.0 mph 48 % 0.00 in
23:42 35.8 °F 18.5 °F 29.67 in WNW 10.2 mph 29.0 mph 49 % 0.00 in
23:52 35.6 °F 18.8 °F 29.68 in West 9.2 mph 29.0 mph 50 % 0.00 in
23:57 35.5 °F 18.7 °F 29.67 in WSW 6.4 mph 29.0 mph 50 % 0.00 in
Crab Meadow Weather
Compliments of Weather Underground - 3 mb

Script developed by  Jim McMurry - jmcmurry@mwt.net Adapted for the template by  Wim van der Kuil - Leuven-Template.eu

Astronomy: The gravity on Jupiter is 2.6 times that of the Earth.